• In Deutschland
  • Länderverzeichnis
  • Für 7 Tage
  • Wassertemperatur
  • Satellitenkarten
  • Wetterkarte
  • Widgets
  • user-avatar
    Anmelden

    Stündliche Wetter Wipperfürth

    Heute, 26 April, Donnerstag

    Zeit Temperatur Niederschläge Wind Luftdruck Luftfeuchtigkeit
    00:00 +5°C° 0 mm 3 m/S 733 mmHg 80%
    01:00 +5°C° 0,1 mm 4 m/S 733 mmHg 81%
    02:00 +5°C° 0,1 mm 4 m/S 733 mmHg 83%
    03:00 +5°C° 0,1 mm 4 m/S 733 mmHg 85%
    04:00 +5°C° 0,1 mm 5 m/S 733 mmHg 84%
    05:00 +6°C° 0,1 mm 5 m/S 734 mmHg 82%
    06:00 +6°C° 0,1 mm 5 m/S 734 mmHg 81%
    07:00 +6°C° 0,1 mm 5 m/S 734 mmHg 77%
    08:00 +7°C° 0,1 mm 5 m/S 734 mmHg 73%
    09:00 +8°C° 0,1 mm 5 m/S 735 mmHg 69%
    10:00 +9°C° 0,1 mm 5 m/S 735 mmHg 63%
    11:00 +10°C° 0,1 mm 5 m/S 735 mmHg 56%
    12:00 +11°C° 0,1 mm 6 m/S 735 mmHg 49%
    13:00 +11°C° 0,2 mm 6 m/S 735 mmHg 49%
    14:00 +13°C° 0,2 mm 5 m/S 735 mmHg 49%
    15:00 +13°C° 0,2 mm 5 m/S 735 mmHg 49%
    16:00 +12°C° 0,1 mm 4 m/S 735 mmHg 54%
    17:00 +11°C° 0,1 mm 4 m/S 735 mmHg 59%
    18:00 +10°C° 0,1 mm 3 m/S 735 mmHg 64%
    19:00 +9°C° 0 mm 2 m/S 735 mmHg 67%
    20:00 +8°C° 0 mm 2 m/S 735 mmHg 71%
    21:00 +7°C° 0 mm 2 m/S 735 mmHg 75%
    22:00 +6°C° 0 mm 2 m/S 735 mmHg 77%
    23:00 +6°C° 0 mm 2 m/S 735 mmHg 79%

    Morgen, 27 April, Freitag

    Zeit Temperatur Niederschläge Wind Luftdruck Luftfeuchtigkeit
    00:00 +5°C° 0 mm 2 m/S 735 mmHg 81%
    01:00 +5°C° 0 mm 2 m/S 735 mmHg 81%
    02:00 +6°C° 0 mm 1 m/S 734 mmHg 81%
    03:00 +5°C° 0 mm 1 m/S 734 mmHg 82%
    04:00 +5°C° 0 mm 2 m/S 734 mmHg 79%
    05:00 +6°C° 0 mm 2 m/S 733 mmHg 76%
    06:00 +7°C° 0 mm 2 m/S 733 mmHg 73%
    07:00 +9°C° 0 mm 2 m/S 733 mmHg 66%
    08:00 +10°C° 0 mm 2 m/S 733 mmHg 60%
    09:00 +12°C° 0 mm 3 m/S 733 mmHg 53%
    10:00 +13°C° 0 mm 3 m/S 732 mmHg 50%
    11:00 +14°C° 0 mm 3 m/S 731 mmHg 47%
    12:00 +16°C° 0 mm 3 m/S 731 mmHg 44%
    13:00 +17°C° 0 mm 3 m/S 730 mmHg 43%
    14:00 +17°C° 0 mm 3 m/S 730 mmHg 42%
    15:00 +18°C° 0 mm 4 m/S 729 mmHg 41%
    16:00 +17°C° 0 mm 3 m/S 729 mmHg 47%
    17:00 +16°C° 0 mm 3 m/S 728 mmHg 52%
    18:00 +14°C° 0 mm 3 m/S 728 mmHg 58%
    19:00 +13°C° 0,1 mm 3 m/S 728 mmHg 63%
    20:00 +12°C° 0,1 mm 3 m/S 729 mmHg 69%
    21:00 +11°C° 0,1 mm 3 m/S 729 mmHg 75%
    22:00 +10°C° 0 mm 3 m/S 729 mmHg 78%
    23:00 +10°C° 0 mm 4 m/S 729 mmHg 81%

    übermorgen, 28 April, Samstag

    Zeit Temperatur Niederschläge Wind Luftdruck Luftfeuchtigkeit
    00:00 +8°C° 0 mm 4 m/S 729 mmHg 84%
    01:00 +8°C° 0 mm 4 m/S 729 mmHg 84%
    02:00 +7°C° 0 mm 4 m/S 729 mmHg 85%
    03:00 +6°C° 0 mm 4 m/S 730 mmHg 85%
    04:00 +7°C° 0 mm 4 m/S 730 mmHg 83%
    05:00 +7°C° 0 mm 4 m/S 731 mmHg 82%
    06:00 +7°C° 0 mm 4 m/S 731 mmHg 81%
    07:00 +8°C° 0 mm 4 m/S 732 mmHg 78%
    08:00 +10°C° 0 mm 3 m/S 732 mmHg 76%
    09:00 +11°C° 0 mm 3 m/S 733 mmHg 74%
    10:00 +11°C° 0,1 mm 3 m/S 733 mmHg 72%
    11:00 +12°C° 0,1 mm 3 m/S 733 mmHg 71%
    12:00 +12°C° 0,1 mm 3 m/S 733 mmHg 69%
    13:00 +13°C° 0,2 mm 2 m/S 733 mmHg 70%
    14:00 +13°C° 0,2 mm 2 m/S 733 mmHg 70%
    15:00 +13°C° 0,2 mm 2 m/S 733 mmHg 70%
    16:00 +12°C° 0,1 mm 2 m/S 733 mmHg 73%
    17:00 +12°C° 0,1 mm 2 m/S 733 mmHg 76%
    18:00 +10°C° 0,1 mm 2 m/S 733 mmHg 79%
    19:00 +10°C° 0 mm 2 m/S 733 mmHg 81%
    20:00 +9°C° 0 mm 2 m/S 733 mmHg 83%
    21:00 +8°C° 0 mm 2 m/S 733 mmHg 86%
    22:00 +8°C° 0,2 mm 2 m/S 733 mmHg 87%
    23:00 +8°C° 0,2 mm 2 m/S 732 mmHg 88%

    29 April, Sonntag

    Zeit Temperatur Niederschläge Wind Luftdruck Luftfeuchtigkeit
    00:00 +8°C° 0,2 mm 2 m/S 732 mmHg 90%
    01:00 +8°C° 1,1 mm 2 m/S 732 mmHg 90%
    02:00 +8°C° 1,1 mm 2 m/S 731 mmHg 91%
    03:00 +8°C° 1,1 mm 2 m/S 731 mmHg 92%
    04:00 +8°C° 0,7 mm 3 m/S 730 mmHg 91%
    05:00 +8°C° 0,7 mm 3 m/S 730 mmHg 91%
    06:00 +8°C° 0,7 mm 3 m/S 729 mmHg 90%
    07:00 +10°C° 0,6 mm 4 m/S 729 mmHg 86%
    08:00 +11°C° 0,6 mm 4 m/S 729 mmHg 83%
    09:00 +13°C° 0,6 mm 4 m/S 728 mmHg 79%
    10:00 +14°C° 0,2 mm 4 m/S 728 mmHg 74%
    11:00 +17°C° 0,2 mm 3 m/S 727 mmHg 69%
    12:00 +19°C° 0,2 mm 3 m/S 727 mmHg 63%
    13:00 +19°C° 0,5 mm 3 m/S 726 mmHg 65%
    14:00 +20°C° 0,5 mm 2 m/S 726 mmHg 67%
    15:00 +20°C° 0,5 mm 2 m/S 725 mmHg 68%
    16:00 +19°C° 0,4 mm 2 m/S 724 mmHg 73%
    17:00 +18°C° 0,4 mm 2 m/S 724 mmHg 77%
    18:00 +17°C° 0,4 mm 2 m/S 723 mmHg 82%
    19:00 +16°C° 4,6 mm 2 m/S 723 mmHg 85%
    20:00 +16°C° 4,6 mm 3 m/S 723 mmHg 89%
    21:00 +14°C° 4,6 mm 3 m/S 722 mmHg 92%
    22:00 +13°C° 2,3 mm 4 m/S 723 mmHg 91%
    23:00 +13°C° 2,3 mm 4 m/S 723 mmHg 90%

    30 April, Montag

    Zeit Temperatur Niederschläge Wind Luftdruck Luftfeuchtigkeit
    00:00 +12°C° 2,3 mm 4 m/S 723 mmHg 89%
    01:00 +11°C° 0,1 mm 4 m/S 723 mmHg 87%
    02:00 +9°C° 0,1 mm 5 m/S 723 mmHg 86%
    03:00 +8°C° 0,1 mm 5 m/S 724 mmHg 84%
    04:00 +8°C° 0 mm 5 m/S 724 mmHg 82%
    05:00 +8°C° 0 mm 5 m/S 724 mmHg 80%
    06:00 +8°C° 0 mm 5 m/S 724 mmHg 78%
    07:00 +8°C° 0 mm 6 m/S 724 mmHg 74%
    08:00 +9°C° 0 mm 6 m/S 724 mmHg 69%
    09:00 +9°C° 0 mm 7 m/S 724 mmHg 65%
    10:00 +9°C° 0,1 mm 7 m/S 725 mmHg 66%
    11:00 +9°C° 0,1 mm 7 m/S 725 mmHg 67%
    12:00 +7°C° 0,1 mm 8 m/S 725 mmHg 69%
    13:00 +7°C° 0,1 mm 8 m/S 725 mmHg 66%
    14:00 +7°C° 0,1 mm 8 m/S 725 mmHg 64%
    15:00 +7°C° 0,1 mm 8 m/S 726 mmHg 62%
    16:00 +6°C° 0,1 mm 8 m/S 726 mmHg 62%
    17:00 +6°C° 0,1 mm 8 m/S 726 mmHg 62%
    18:00 +6°C° 0,1 mm 8 m/S 726 mmHg 62%
    19:00 +5°C° 0 mm 8 m/S 727 mmHg 65%
    20:00 +4°C° 0 mm 7 m/S 728 mmHg 67%
    21:00 +4°C° 0 mm 6 m/S 728 mmHg 70%
    22:00 +3°C° 0 mm 6 m/S 729 mmHg 71%
    23:00 +3°C° 0 mm 6 m/S 729 mmHg 73%

    1 Mai, Dienstag

    Zeit Temperatur Niederschläge Wind Luftdruck Luftfeuchtigkeit
    00:00 +3°C° 0 mm 6 m/S 730 mmHg 75%
    01:00 +2°C° 0 mm 6 m/S 730 mmHg 75%
    02:00 +2°C° 0 mm 6 m/S 730 mmHg 74%
    03:00 +2°C° 0 mm 6 m/S 731 mmHg 74%
    04:00 +2°C° 0 mm 6 m/S 731 mmHg 71%
    05:00 +2°C° 0 mm 6 m/S 731 mmHg 69%
    06:00 +2°C° 0 mm 6 m/S 732 mmHg 66%
    07:00 +3°C° 0 mm 6 m/S 732 mmHg 63%
    08:00 +5°C° 0 mm 6 m/S 732 mmHg 60%
    09:00 +7°C° 0 mm 6 m/S 733 mmHg 56%
    10:00 +7°C° 0,1 mm 6 m/S 733 mmHg 55%
    11:00 +8°C° 0,1 mm 5 m/S 733 mmHg 53%
    12:00 +9°C° 0,1 mm 5 m/S 733 mmHg 51%
    13:00 +9°C° 0,1 mm 5 m/S 733 mmHg 52%
    14:00 +9°C° 0,1 mm 5 m/S 733 mmHg 52%
    15:00 +10°C° 0,1 mm 5 m/S 733 mmHg 53%
    16:00 +10°C° 0 mm 4 m/S 733 mmHg 56%
    17:00 +10°C° 0 mm 3 m/S 733 mmHg 59%
    18:00 +9°C° 0 mm 2 m/S 733 mmHg 63%
    19:00 +8°C° 0 mm 2 m/S 733 mmHg 66%
    20:00 +6°C° 0 mm 2 m/S 734 mmHg 70%
    21:00 +6°C° 0 mm 1 m/S 734 mmHg 74%
    22:00 +6°C° 0 mm 1 m/S 734 mmHg 77%
    23:00 +5°C° 0 mm 1 m/S 734 mmHg 79%
    Mehr zeigen